Wind_Speed
9 10 9 9 9 8 9 12 12 16 20 24 27 29 30 33 37 40 40 43 47 47 45 43 42 42 40 36 36 40 45 47 48 49 50 49 48 48 49 48 47 44 43 42
7 8 7 7 6 7 8 9 11 13 17 20 22 24 28 31 34 37 39 40 44 45 44 41 40 41 39 36 34 35 38 41 43 45 46 46 46 47 47 48 47 44 43 43
5 5 5 5 5 6 6 8 10 12 15 18 18 19 23 27 31 33 36 38 40 42 42 39 38 40 39 36 35 34 35 35 39 41 42 45 45 44 43 44 43 42 42 41
4 4 2 1 2 4 5 6 8 10 12 15 16 16 18 23 28 31 33 35 38 40 40 38 36 36 36 36 33 33 34 34 34 38 40 42 43 43 42 41 40 41 40 39
7 6 6 4 3 3 3 5 7 8 10 12 14 14 17 19 22 26 29 32 35 38 39 38 35 35 34 33 31 29 31 32 32 32 34 37 39 41 41 41 41 41 42 42
7 8 8 8 6 6 6 6 7 8 9 10 12 13 13 16 20 23 25 28 31 33 35 35 34 34 33 33 30 29 29 28 30 32 33 34 35 37 40 41 44 44 45 45
8 9 9 10 10 9 8 8 9 8 10 10 10 10 11 13 16 19 20 23 26 30 32 34 32 31 31 32 32 30 29 29 29 31 32 33 33 34 35 38 39 40 41 43
8 9 9 10 10 10 9 9 9 9 10 10 10 10 10 11 13 15 18 20 23 27 28 30 30 30 30 31 31 29 30 30 30 31 31 33 34 33 33 34 35 37 38 38
10 10 10 10 10 10 10 11 11 11 11 10 10 9 9 10 12 13 16 18 21 24 25 26 28 31 31 31 30 29 30 30 30 32 33 34 34 35 35 34 34 36 37 38
10 10 10 10 11 11 11 11 11 11 11 9 9 9 9 10 10 11 13 15 19 21 22 23 26 28 31 33 31 31 31 31 32 32 33 34 35 34 35 35 35 36 37 38
11 11 11 11 10 10 11 11 11 9 10 10 9 8 9 10 10 11 13 15 17 19 21 23 25 26 29 32 33 32 32 33 33 34 34 34 36 36 36 36 36 37 37 37
10 10 10 10 9 10 10 10 9 10 10 10 9 8 9 9 10 11 12 15 17 19 21 23 25 26 28 30 32 34 35 35 35 36 36 36 37 38 38 37 37 38 38 38
10 10 10 9 8 8 8 8 8 8 8 8 8 8 8 9 9 10 12 14 17 19 21 24 26 28 29 31 32 34 35 37 37 37 38 39 39 41 41 41 41 41 41 41
10 9 8 8 8 8 8 7 6 6 6 6 6 7 9 9 10 11 12 14 17 19 22 24 26 28 30 32 34 35 37 39 40 40 41 41 43 44 44 44 44 44 44 44
9 8 8 7 6 6 6 5 5 5 5 5 5 6 9 10 11 13 14 16 18 20 22 25 27 29 31 33 35 36 38 40 41 42 43 44 45 46 46 46 46 46 46 46
6 6 6 6 5 5 4 3 3 3 3 4 4 6 7 10 12 14 16 17 20 22 24 26 28 30 32 35 36 38 40 42 43 44 45 46 47 48 48 48 48 48 48 48
4 4 3 3 3 2 1 1 1 2 3 4 5 7 8 10 12 15 17 19 22 24 26 28 31 33 35 37 39 41 43 44 46 47 48 49 49 49 49 49 49 49 49 49
3 2 1 0 1 1 1 2 3 3 4 6 8 10 11 13 15 17 19 22 24 27 29 31 34 36 38 40 42 44 46 47 48 49 50 51 52 51 51 51 52 51 51 51
3 2 2 2 2 2 3 4 4 5 6 8 10 12 13 15 17 19 22 24 26 29 32 34 36 39 41 43 44 46 48 49 51 51 52 52 52 52 52 52 52 52 52 51
3 3 2 2 3 3 4 5 6 7 8 10 12 14 16 17 19 21 24 27 29 32 35 37 40 42 43 45 46 48 49 50 51 51 52 52 52 52 52 52 52 51 51 50
5 4 4 3 3 4 5 7 8 9 10 12 14 16 19 21 23 26 28 30 33 35 37 40 41 43 45 47 48 50 51 53 53 52 52 52 52 51 51 51 51 50 50 50
6 5 5 5 5 5 7 9 10 11 13 15 17 19 21 23 26 28 31 33 36 38 40 42 44 46 47 49 50 52 53 54 54 54 53 53 52 51 51 50 50 50 49 49
6 6 6 6 6 8 9 10 12 14 16 18 20 22 24 26 29 31 34 36 38 40 42 44 46 48 50 51 53 54 55 56 56 55 55 54 53 53 52 51 50 49 49 48
5 6 7 8 9 10 12 13 15 17 19 21 23 25 27 29 32 34 36 38 40 42 44 46 48 50 52 54 55 56 57 57 57 57 56 55 55 54 53 52 51 49 48 48
7 8 9 10 12 13 15 17 19 21 22 25 27 29 31 33 35 37 39 41 43 45 46 48 50 51 52 54 55 55 56 55 55 55 54 54 54 53 52 51 50 49 48 48
9 10 12 13 15 16 18 20 22 24 26 28 30 33 35 37 38 40 42 44 45 47 48 49 51 51 52 53 54 53 53 53 53 52 52 51 51 51 51 51 50 49 48 48
Wind_Direction
306 302 295 287 273 252 236 236 235 227 222 220 218 218 217 214 212 212 210 210 212 212 213 213 214 216 216 214 213 213 215 212 213 214 216 216 218 220 221 223 226 227 230 232
312 304 289 281 264 243 232 235 234 224 219 218 217 218 216 215 212 212 213 211 212 212 213 215 216 217 219 216 212 208 211 214 214 215 216 217 219 221 223 225 228 230 232 233
327 314 292 284 254 233 226 231 225 217 212 209 209 209 210 212 211 212 212 213 213 213 214 216 218 218 219 218 215 210 211 216 218 218 219 220 221 223 226 227 230 233 236 238
8 5 350 289 201 216 212 203 201 206 207 206 204 203 204 206 209 212 213 214 214 215 215 215 216 220 223 224 222 218 216 217 219 220 220 221 222 225 228 230 233 234 236 238
51 53 59 85 108 163 187 178 185 193 197 200 197 198 196 199 202 208 213 215 215 216 216 218 219 221 225 227 226 224 223 224 226 224 223 224 226 229 231 234 235 238 239 241
64 66 71 82 90 104 125 150 162 167 172 180 186 191 192 199 200 207 212 215 215 217 217 220 222 225 229 230 231 231 231 234 233 231 228 228 230 233 234 236 238 240 241 242
74 77 81 90 93 98 112 133 145 154 165 170 174 183 191 197 203 212 213 214 215 217 219 221 224 228 231 235 237 237 237 238 236 233 233 232 234 235 238 237 238 241 243 243
85 86 86 94 98 99 106 124 140 148 154 156 163 172 182 193 203 211 213 214 216 217 218 224 228 230 233 238 239 240 239 240 241 239 239 238 240 241 244 242 241 243 245 245
85 88 90 93 94 96 105 119 131 140 144 149 157 166 173 183 192 201 209 215 218 219 224 229 230 231 235 237 238 239 241 242 244 244 246 246 248 249 250 249 249 248 248 250
87 87 89 92 92 96 104 116 129 139 145 145 155 168 175 181 185 196 206 215 221 223 228 233 233 233 235 237 239 242 245 247 247 248 250 252 251 253 253 251 253 253 253 253
94 90 91 92 92 99 104 115 124 138 149 151 153 163 171 179 188 199 210 218 222 227 232 235 236 236 237 240 242 245 248 249 250 250 252 253 252 254 255 255 255 255 255 255
99 96 95 94 96 102 108 115 121 130 141 156 159 166 170 181 192 204 214 221 226 231 237 238 240 241 242 244 246 248 249 251 253 253 254 254 254 254 254 255 255 255 256 256
104 104 101 100 99 111 113 115 119 126 132 147 161 171 178 185 196 209 218 225 230 234 238 239 242 245 245 247 248 249 251 252 254 255 255 255 255 256 256 256 257 257 257 258
107 107 107 105 104 114 121 122 126 134 145 158 169 183 196 203 212 219 228 235 239 242 244 245 247 248 248 248 249 250 252 253 255 255 255 256 258 258 259 259 260 260 260 260
106 102 102 104 103 111 123 128 133 139 152 174 190 201 211 220 225 232 239 243 246 248 251 251 252 253 252 252 252 253 253 254 255 255 256 257 258 259 259 259 260 261 261 261
111 105 99 98 99 106 118 129 147 163 181 194 213 224 232 236 239 241 245 248 251 253 256 257 257 257 257 257 257 256 256 257 257 257 257 258 258 259 259 260 260 260 261 261
116 117 113 102 95 104 126 166 199 224 237 242 246 254 256 255 253 252 254 256 257 258 259 260 261 261 261 260 260 260 260 260 260 260 260 259 259 260 260 260 260 260 260 260
106 110 90 34 344 296 293 287 282 280 276 272 270 271 271 269 266 265 264 264 264 264 264 265 265 265 264 263 263 262 262 262 263 262 262 261 261 262 261 261 261 261 260 260
78 63 42 10 352 329 312 302 294 290 286 284 283 282 280 278 275 274 273 271 270 270 270 270 270 269 268 267 266 265 265 264 265 264 264 264 263 263 263 263 262 262 262 262
54 41 23 0 349 337 330 321 313 306 298 293 291 290 288 286 284 282 279 278 276 275 274 273 272 272 271 270 269 267 267 266 266 266 266 265 264 264 264 263 263 263 262 262
56 49 37 20 359 348 337 325 319 314 310 304 299 295 292 291 289 287 284 282 280 279 278 277 276 275 274 273 271 270 268 268 267 267 266 265 264 264 264 263 262 262 261 261
53 43 32 16 357 342 336 330 324 318 313 309 304 301 298 295 293 291 289 287 285 283 281 280 279 278 277 275 273 271 270 269 269 268 268 267 265 264 263 262 261 260 259 259
33 22 11 2 351 340 334 328 322 317 313 310 307 305 302 299 297 294 292 290 288 286 284 283 281 280 279 277 275 274 272 271 270 269 268 267 266 264 263 262 261 260 259 258
9 358 350 343 337 331 327 323 319 315 313 310 308 307 305 303 301 298 296 293 291 289 288 286 284 282 281 279 277 276 274 272 271 269 268 267 265 264 262 261 259 258 257 256
345 340 336 331 329 326 324 322 319 316 314 312 310 309 308 305 303 301 298 295 294 292 290 289 288 286 284 282 280 279 276 273 271 270 268 267 265 263 261 259 258 256 255 254
331 330 329 327 327 326 324 323 321 319 317 315 313 311 309 308 305 303 301 299 297 296 294 292 291 288 287 285 283 281 278 275 273 270 268 266 265 262 260 257 255 253 252 251
Height
5604 5604 5602 5600 5599 5599 5599 5601 5602 5604 5606 5610 5616 5622 5628 5634 5641 5648 5655 5663 5671 5678 5686 5693 5700 5706 5713 5719 5725 5730 5736 5741 5746 5752 5757 5761 5766 5770 5775 5779 5782 5785 5789 5792
5603 5601 5600 5598 5597 5597 5598 5599 5601 5603 5605 5609 5614 5619 5624 5630 5637 5644 5651 5659 5667 5675 5682 5689 5695 5702 5708 5714 5719 5725 5731 5736 5742 5747 5751 5756 5760 5764 5768 5772 5775 5778 5782 5785
5601 5600 5598 5597 5596 5597 5598 5599 5600 5602 5605 5609 5614 5618 5623 5628 5634 5641 5648 5655 5663 5671 5678 5685 5690 5697 5703 5709 5715 5720 5725 5730 5735 5740 5745 5750 5754 5758 5761 5765 5769 5772 5775 5777
5600 5599 5597 5596 5596 5596 5597 5599 5600 5603 5606 5610 5614 5618 5623 5627 5633 5639 5646 5652 5659 5666 5673 5680 5686 5692 5698 5704 5709 5714 5720 5725 5728 5733 5739 5743 5747 5752 5755 5759 5762 5765 5768 5770
5601 5599 5598 5597 5597 5597 5598 5600 5601 5604 5607 5611 5615 5619 5624 5627 5633 5638 5644 5650 5656 5663 5670 5676 5682 5688 5694 5699 5704 5709 5714 5718 5722 5727 5732 5736 5741 5745 5749 5752 5754 5757 5760 5763
5603 5601 5600 5599 5599 5599 5599 5601 5603 5606 5609 5613 5616 5620 5625 5628 5633 5638 5643 5648 5654 5660 5666 5672 5678 5684 5689 5694 5699 5703 5708 5712 5716 5721 5725 5730 5734 5737 5741 5744 5747 5749 5752 5754
5604 5604 5603 5602 5602 5601 5602 5604 5607 5609 5611 5615 5618 5621 5626 5629 5633 5637 5642 5647 5653 5658 5664 5670 5675 5681 5686 5690 5694 5699 5703 5707 5711 5715 5719 5723 5726 5730 5733 5735 5738 5740 5743 5746
5606 5606 5605 5605 5605 5605 5605 5607 5610 5612 5614 5617 5620 5623 5627 5630 5634 5638 5642 5647 5652 5657 5663 5668 5672 5677 5682 5686 5690 5694 5698 5702 5705 5709 5712 5715 5718 5721 5724 5726 5729 5732 5734 5737
5608 5608 5608 5607 5608 5608 5608 5609 5612 5614 5616 5619 5621 5625 5628 5630 5634 5638 5642 5647 5651 5656 5661 5665 5670 5674 5678 5682 5686 5689 5693 5696 5699 5702 5705 5708 5710 5713 5716 5718 5721 5723 5726 5728
5610 5610 5610 5610 5611 5611 5612 5613 5615 5617 5619 5621 5623 5626 5629 5631 5634 5638 5642 5646 5650 5655 5659 5663 5666 5670 5674 5677 5681 5684 5687 5690 5692 5695 5698 5700 5703 5705 5707 5710 5712 5715 5717 5719
5612 5613 5613 5613 5613 5614 5616 5616 5617 5619 5621 5623 5625 5629 5629 5632 5635 5638 5642 5645 5649 5653 5656 5659 5663 5666 5669 5672 5675 5678 5681 5683 5685 5688 5691 5693 5695 5697 5699 5701 5704 5706 5708 5710
5614 5615 5615 5616 5616 5617 5618 5619 5620 5622 5623 5625 5627 5632 5630 5632 5635 5638 5640 5644 5647 5650 5653 5656 5659 5661 5664 5666 5668 5671 5674 5676 5678 5681 5683 5685 5687 5689 5690 5692 5694 5696 5698 5700
5615 5617 5618 5618 5621 5620 5620 5621 5622 5623 5625 5626 5628 5632 5631 5633 5635 5637 5639 5641 5644 5646 5649 5651 5654 5656 5658 5659 5661 5663 5666 5668 5670 5672 5674 5675 5677 5679 5680 5682 5684 5686 5687 5689
5617 5618 5620 5621 5621 5621 5622 5623 5624 5625 5626 5627 5628 5630 5631 5633 5634 5636 5638 5639 5641 5643 5645 5646 5648 5649 5651 5652 5654 5655 5657 5659 5661 5662 5664 5665 5667 5668 5670 5672 5673 5675 5676 5678
5619 5620 5620 5621 5622 5623 5623 5624 5625 5626 5627 5628 5629 5629 5631 5632 5634 5635 5636 5637 5638 5639 5640 5641 5642 5643 5644 5644 5645 5646 5648 5649 5650 5652 5653 5654 5656 5657 5658 5660 5661 5663 5664 5666
5620 5621 5622 5622 5623 5624 5624 5625 5626 5626 5627 5628 5628 5630 5630 5631 5631 5632 5633 5634 5634 5635 5635 5636 5636 5636 5637 5637 5637 5637 5638 5639 5639 5640 5641 5642 5643 5644 5646 5647 5648 5650 5651 5653
5620 5621 5622 5623 5624 5625 5625 5626 5626 5626 5627 5627 5628 5629 5628 5628 5629 5629 5629 5629 5630 5630 5629 5629 5629 5629 5628 5628 5628 5628 5627 5628 5628 5628 5629 5629 5630 5631 5632 5634 5635 5636 5637 5639
5621 5621 5622 5623 5624 5624 5627 5625 5625 5625 5625 5626 5626 5626 5626 5626 5625 5625 5625 5624 5624 5623 5622 5622 5621 5619 5619 5618 5617 5616 5615 5615 5615 5615 5615 5615 5616 5617 5618 5619 5620 5622 5623 5625
5621 5622 5622 5622 5623 5623 5624 5623 5623 5624 5624 5623 5623 5622 5622 5621 5621 5620 5619 5618 5617 5616 5614 5612 5611 5609 5607 5606 5605 5604 5603 5602 5601 5601 5600 5600 5601 5602 5603 5604 5605 5607 5608 5610
5621 5621 5622 5622 5622 5622 5624 5622 5621 5622 5621 5620 5619 5619 5618 5617 5616 5615 5613 5611 5609 5607 5604 5602 5600 5598 5596 5594 5592 5590 5589 5587 5587 5586 5586 5585 5586 5586 5587 5588 5590 5591 5593 5595
5622 5621 5621 5621 5621 5621 5621 5620 5620 5620 5620 5617 5616 5614 5613 5611 5610 5608 5605 5602 5599 5597 5594 5591 5588 5585 5582 5580 5577 5575 5573 5572 5571 5570 5570 5570 5570 5571 5571 5573 5574 5575 5577 5579
5622 5622 5621 5621 5620 5622 5619 5618 5618 5617 5614 5613 5611 5609 5607 5605 5602 5599 5596 5593 5589 5585 5581 5578 5574 5571 5567 5564 5561 5559 5557 5555 5554 5553 5553 5553 5553 5554 5555 5556 5558 5559 5561 5563
5622 5622 5621 5621 5622 5619 5617 5616 5614 5613 5611 5608 5606 5604 5601 5597 5594 5590 5586 5582 5577 5573 5568 5564 5560 5556 5551 5547 5544 5541 5539 5537 5536 5535 5534 5534 5535 5536 5537 5539 5541 5543 5545 5547
5622 5621 5620 5619 5618 5616 5614 5612 5611 5608 5606 5603 5600 5597 5593 5589 5585 5580 5575 5570 5565 5559 5554 5549 5544 5539 5535 5530 5526 5523 5520 5518 5516 5516 5515 5515 5516 5517 5519 5521 5524 5526 5529 5531
5621 5620 5618 5617 5616 5613 5611 5609 5606 5603 5600 5597 5593 5589 5584 5580 5574 5569 5563 5557 5551 5546 5540 5534 5528 5523 5517 5512 5507 5503 5499 5497 5496 5496 5496 5496 5497 5498 5500 5502 5505 5509 5512 5515
5619 5618 5616 5615 5613 5610 5608 5604 5601 5597 5593 5589 5585 5580 5574 5568 5563 5556 5550 5543 5537 5530 5524 5518 5511 5505 5500 5494 5489 5484 5480 5478 5477 5476 5476 5476 5477 5479 5481 5484 5487 5491 5495 5498